Location: New Town
(33.2710°N, 90.7534°W)
Time: 13:13:52
(UTC+00:00)

S-56A Canister/Altair - Visible Passes

Search period start: 13 May 2021 00:00
Search period end: 23 May 2021 00:00
Orbit: 631 x 2501 km, 38.9° (Epoch: 12 May)

Date Brightness Start Highest point End Pass type
(mag) Time Alt. Az. Time Alt. Az. Time Alt. Az.
13 May 9.8 01:27:32 10° WNW 01:42:17 73° N 01:52:55 10° E visible
13 May 9.0 03:35:39 10° WNW 03:48:23 67° SSW 03:50:25 56° SSE visible
13 May 10.7 05:45:12 10° W 05:47:49 15° W 05:47:49 15° W visible
14 May 9.2 03:01:46 10° WNW 03:15:17 74° SSW 03:19:19 43° SE visible
14 May 10.4 05:10:48 10° W 05:16:44 22° WSW 05:16:44 22° WSW visible
15 May 9.4 02:27:54 10° WNW 02:42:04 81° SSW 02:48:15 30° SE visible
15 May 10.0 04:36:34 10° WNW 04:45:39 30° SW 04:45:39 30° SW visible
16 May 9.6 01:54:03 10° WNW 02:08:44 86° SSW 02:17:11 19° ESE visible
16 May 9.8 04:02:27 10° WNW 04:13:25 36° SW 04:14:36 35° SSW visible
17 May 9.8 01:20:14 10° WNW 01:35:18 89° NNE 01:46:10 11° ESE visible
17 May 9.7 03:28:24 10° WNW 03:40:31 42° SW 03:43:35 35° S visible
18 May 9.8 02:54:24 10° WNW 03:07:29 49° SW 03:12:36 30° SSE visible
18 May 11.0 05:07:56 10° WSW 05:10:01 11° WSW 05:10:01 11° WSW visible
19 May 9.9 02:20:29 10° WNW 02:34:22 56° SW 02:41:39 23° SSE visible
19 May 10.8 04:31:42 10° W 04:37:41 15° WSW 04:39:04 15° SW visible
20 May 10.0 01:46:37 10° WNW 02:01:06 62° SW 02:10:43 15° SE visible
20 May 10.6 03:56:42 10° W 04:04:54 20° SW 04:08:09 17° SSW visible
21 May 10.0 01:12:49 10° WNW 01:27:45 68° SSW 01:39:21 10° SE visible
21 May 10.5 03:22:06 10° W 03:32:02 25° SW 03:37:16 17° SSW visible
22 May 10.6 02:47:45 10° WNW 02:59:05 30° SW 03:06:25 15° S visible
